This is the latest recevied weather packets stored in our database for station/object G6UIM. If no packets are shown the sender has not sent any weather packets the latest 10 day(s).
| Time | Temp. | Humidity | Pressure | Rain* | Wind** | Luminosity | Snow |
|---|---|---|---|---|---|---|---|
| 1777675817 | 11.11° C | 87% | 1021.5 hPa | 0 mm | - | 0 W/m² | - |
| 1777675217 | 11.11° C | 87% | 1021.6 hPa | 0 mm | - | 0 W/m² | - |
| 1777673417 | 11.67° C | 87% | 1021.6 hPa | 0 mm | - | 0 W/m² | - |
| 1777672817 | 11.67° C | 87% | 1021.6 hPa | 0 mm | - | 0 W/m² | - |
| 1777672217 | 11.67° C | 86% | 1021.7 hPa | 0 mm | - | 0 W/m² | - |
| 1777671617 | 11.67° C | 86% | 1021.7 hPa | 0 mm | - | 0 W/m² | - |
| 1777670416 | 11.67° C | 85% | 1021.8 hPa | 0 mm | - | 0 W/m² | - |
| 1777669837 | 12.22° C | 85% | 1021.8 hPa | 0 mm | - | 0 W/m² | - |
| 1777666817 | 12.22° C | 84% | 1021.7 hPa | 0 mm | - | 0 W/m² | - |
| 1777660216 | 13.89° C | 81% | 1020.9 hPa | 0 mm | - | 49 W/m² | - |
| 1777657817 | 14.44° C | 78% | 1021 hPa | 0 mm | - | 52 W/m² | - |
| 1777639836 | 19.44° C | 70% | 1021.3 hPa | 0 mm | - | 756 W/m² | - |
| 1777633218 | 16.67° C | 75% | 1021.5 hPa | 0 mm | - | 455 W/m² | - |
| 1777631418 | 16.11° C | 79% | 1021.6 hPa | 0 mm | - | 517 W/m² | - |
| 1777630817 | 15.56° C | 80% | 1021.6 hPa | 0 mm | - | 490 W/m² | - |
| 1777629618 | 15° C | 83% | 1021.6 hPa | 0 mm | - | 423 W/m² | - |
| 1777629018 | 14.44° C | 87% | 1021.6 hPa | 0 mm | - | 435 W/m² | - |
| 1777628417 | 13.33° C | 88% | 1021.5 hPa | 0 mm | - | 387 W/m² | - |
| 1777624817 | 12.78° C | 90% | 1021.3 hPa | 0 mm | - | 103 W/m² | - |
| 1777623617 | 12.78° C | 90% | 1021.1 hPa | 0 mm | - | 114 W/m² | - |
| 1777619418 | 12.78° C | 89% | 1020.5 hPa | 0 mm | - | 42 W/m² | - |
| 1777616417 | 12.78° C | 89% | 1020.4 hPa | 0 mm | - | 46 W/m² | - |
| 1777612817 | 12.22° C | 87% | 1020 hPa | 0 mm | - | 7 W/m² | - |
| 1777611017 | 11.67° C | 86% | 1019.9 hPa | 0 mm | - | 0 W/m² | - |
| 1777607417 | 11.11° C | 85% | 1019.7 hPa | 0 mm | - | 0 W/m² | - |
* Rain latest hour (hover to see other rain measurements)
** Current wind speed in m/s (hover to see current wind gust speed)